Location: Unspecified
(51.0950°N, 12.9690°E)
Time: 23:17:18
(UTC+00:00)

First-Move - Pass Details

Date: 24 April 2024
Orbit: 539 x 600 km, 97.7° (Epoch: 17 May)

Event Time Altitude Azimuth Distance (km) Brightness Sun altitude
Rises 02:23:16 0° 17° (NNE) 2,868 ? -13.0°
Reaches altitude 10° 02:25:30 10° 22° (NNE) 1,964 ? -12.7°
Maximum altitude 02:29:42 54° 100° (E) 741 ? -12.2°
Drops below altitude 10° 02:33:52 10° 178° (S) 1,952 ? -11.7°
Enters shadow 02:35:03 - 182° (S) 2,432 ? -11.5°
